Temperature
20 19 19 19 19 18 18 18 18 18 17 17 17 17 17 17 17 17 17 17 17 17 16 16 17 16 16 16 16 16 16 16 16 16 16 16 15 15 15 15 15 15 15
20 20 19 19 19 18 18 18 18 18 17 17 17 17 17 17 17 17 17 17 16 16 16 16 16 16 16 16 16 16 16 16 15 15 15 15 15 15 15 15 15 15 14
20 20 19 19 19 18 18 18 18 18 17 17 17 17 17 17 17 16 17 16 16 16 16 16 16 16 16 16 16 16 16 16 15 15 15 15 15 15 14 14 14 14 14
20 20 19 19 19 18 18 18 18 18 17 17 17 17 17 17 16 16 16 16 16 16 16 16 16 16 16 16 16 16 15 15 15 15 15 15 15 14 14 14 14 14 13
20 20 20 19 19 18 18 18 18 18 17 17 17 17 17 16 16 16 16 16 16 16 16 16 16 15 15 15 15 15 15 15 15 15 15 14 14 14 14 14 13 13 13
20 20 20 19 19 18 18 18 18 17 17 17 17 17 16 16 16 16 16 16 16 16 16 16 15 15 15 15 15 15 15 15 15 14 14 14 14 14 14 13 13 13 12
21 20 20 19 19 18 18 18 17 17 17 17 17 16 16 16 16 16 16 15 15 15 15 15 15 15 15 15 15 15 15 14 14 14 14 14 14 14 13 13 13 13 12
21 20 19 19 19 18 18 17 17 17 17 17 16 16 16 16 16 15 15 15 15 15 15 15 15 15 15 14 14 14 14 14 14 14 14 14 13 13 13 13 12 12 11
20 20 19 19 18 18 18 17 17 17 16 16 16 16 16 16 15 15 15 15 15 15 14 14 14 14 14 14 14 14 14 14 13 13 13 13 13 13 12 12 12 11 11
20 19 19 18 18 18 18 17 17 17 16 16 16 16 15 15 15 15 15 15 14 14 14 14 14 13 13 13 13 13 13 13 13 13 13 13 12 12 12 12 11 11 11
20 19 18 18 18 17 17 17 17 16 16 16 16 15 15 15 15 14 14 14 14 14 13 13 13 13 13 13 13 13 12 12 12 12 12 12 12 12 11 11 11 11 10
19 18 18 18 17 17 17 16 16 16 15 15 15 15 15 15 14 14 14 13 13 13 13 13 13 13 12 12 12 12 12 12 12 12 11 11 11 11 11 10 10 10 10
18 18 17 17 17 17 16 16 15 15 15 15 15 15 14 14 14 14 13 13 13 13 13 12 12 12 12 12 12 11 11 11 11 11 11 11 10 10 10 10 10 9 9
17 17 17 16 16 16 16 15 15 15 15 14 14 14 14 14 13 13 13 13 12 12 12 12 12 11 11 11 11 11 11 11 10 10 10 10 10 10 9 9 9 9 9
16 16 16 16 15 15 15 14 14 14 14 14 14 13 13 13 13 12 12 12 12 12 11 11 11 11 11 11 10 10 10 10 10 9 9 9 9 9 9 9 9 9 8
16 16 15 15 15 14 14 14 14 14 13 13 13 13 12 12 12 12 12 12 11 11 11 11 11 10 10 10 10 10 9 9 9 9 9 9 9 8 8 8 8 8 8
15 14 14 14 14 14 13 13 13 13 13 13 12 12 12 12 11 11 11 11 11 10 10 10 10 10 10 9 9 9 9 9 8 8 8 8 8 8 8 8 8 8 8
14 14 14 13 13 13 13 13 12 13 12 12 12 11 11 11 11 11 11 11 10 10 10 10 10 9 9 9 9 8 8 8 8 8 8 8 8 7 7 7 7 7 7
13 13 13 13 13 12 12 12 12 12 11 11 11 11 11 11 10 10 10 10 10 10 9 9 9 9 9 8 8 8 8 8 8 7 7 7 7 7 7 7 7 7 7
12 12 12 12 12 12 11 11 11 11 11 10 10 10 10 10 10 10 9 9 9 9 9 9 8 8 8 8 8 8 8 7 7 7 7 7 7 7 7 7 7 7 7
12 12 11 11 11 11 11 10 10 10 10 10 10 10 9 9 9 9 9 9 9 8 8 8 8 8 8 8 7 7 7 7 7 7 7 7 7 7 7 7 7 7 7
11 11 11 11 11 10 10 10 10 10 9 9 9 9 9 9 9 9 8 8 8 8 8 8 8 7 7 7 7 7 7 7 7 7 7 7 6 6 6 6 6 6 6
11 11 10 10 10 10 10 10 10 9 9 9 9 9 9 8 8 8 8 8 8 8 8 8 7 7 7 7 7 7 7 7 6 6 6 6 6 6 6 6 6 6 6
10 10 10 10 10 10 9 9 9 9 9 9 8 8 8 8 8 8 8 8 7 7 7 7 7 7 7 7 7 7 6 6 6 6 6 6 6 6 6 6 6 6 6
10 10 9 9 9 9 9 9 9 9 8 8 8 8 8 8 8 8 7 7 7 7 7 7 7 7 7 7 6 6 6 6 6 6 6 6 6 6 6 6 6 6 6
10 9 9 9 9 9 9 9 8 8 8 8 8 8 8 8 7 7 7 7 7 7 7 7 7 7 7 6 6 6 6 6 6 6 6 5 5 5 5 5 5 5 5
Wind_Speed
6 6 5 5 5 4 4 4 4 4 4 4 4 4 4 4 4 4 4 4 4 5 4 5 5 4 4 4 4 4 4 4 5 3 2 2 3 3 3 4 4 5 6
7 6 5 5 4 4 4 4 4 4 3 4 4 4 4 4 4 5 5 5 5 5 5 4 5 4 4 4 4 5 5 5 5 5 3 3 3 3 3 3 3 4 5
6 6 5 5 5 5 4 4 3 3 3 2 3 3 4 4 4 5 5 5 5 5 5 5 5 4 4 4 4 5 4 5 4 4 4 2 2 2 2 2 3 3 4
7 6 6 6 5 5 4 3 3 2 2 2 2 3 3 3 4 4 4 4 4 4 4 4 5 5 6 5 5 5 4 4 4 4 4 3 2 2 3 3 2 2 2
7 7 6 5 4 4 3 3 2 2 2 2 2 1 1 1 2 3 3 3 3 3 3 3 4 4 5 4 4 4 4 4 4 4 4 3 4 4 5 4 4 3 2
7 6 5 4 4 3 3 2 2 1 1 1 1 1 1 2 2 3 3 3 3 3 3 2 2 2 3 3 4 4 5 5 5 5 4 5 6 5 4 5 4 4 3
6 5 4 4 3 3 3 3 2 2 1 1 1 1 1 1 1 1 2 2 2 2 2 1 1 1 1 1 1 1 1 2 4 5 6 6 5 6 7 7 6 5 4
6 5 4 4 3 2 2 2 1 1 1 1 1 0 0 1 0 0 0 0 0 1 1 1 1 0 1 0 0 1 1 2 2 3 4 4 4 5 7 6 6 4 2
5 5 4 4 4 3 3 2 2 2 2 1 1 1 0 1 1 0 1 1 1 1 1 0 1 0 1 1 1 0 1 2 2 2 0 1 4 6 7 5 5 5 3
4 4 3 4 4 4 4 2 1 2 2 1 1 0 0 1 1 1 2 1 1 0 0 0 1 1 1 1 1 1 1 1 0 1 2 2 3 5 7 6 6 6 3
2 2 3 3 3 3 3 2 2 2 1 1 1 0 0 1 1 1 2 1 2 2 1 1 0 1 1 0 1 2 3 2 1 1 1 1 2 2 3 4 4 5 4
4 3 3 3 3 3 3 2 2 2 2 1 1 1 1 1 1 1 1 1 2 2 2 2 1 2 1 1 1 1 1 1 1 1 1 1 1 1 1 2 3 3 2
4 3 2 3 3 3 3 2 1 2 2 1 2 2 2 1 1 1 1 1 2 2 1 2 2 2 1 0 0 1 1 1 1 1 1 1 1 1 1 1 2 3 3
3 2 2 3 2 2 2 2 2 1 1 2 2 2 2 1 1 1 1 1 0 0 0 1 1 1 1 1 1 1 0 1 1 1 1 0 0 1 1 1 1 2 2
3 3 2 2 2 2 2 2 1 1 1 2 2 2 2 2 2 2 1 1 1 1 1 1 1 1 1 1 1 1 0 1 0 0 1 0 0 1 0 1 1 2 2
2 2 1 1 2 2 2 2 4 3 3 2 1 1 1 1 1 1 1 1 1 3 2 1 1 1 1 1 1 1 1 0 0 1 1 1 1 1 1 1 1 2 2
2 2 2 2 2 2 2 2 1 2 4 5 3 2 2 2 1 1 2 2 3 4 2 0 0 1 1 1 1 1 1 1 1 1 1 1 2 2 2 2 2 2 2
2 2 2 2 2 2 2 2 2 1 0 1 3 3 3 2 3 3 3 4 3 2 1 1 1 1 1 1 1 1 1 1 1 1 2 2 2 2 2 2 3 3 3
2 1 2 1 2 2 2 1 1 1 1 1 1 2 3 3 4 4 4 2 1 0 1 1 1 1 1 1 1 2 2 2 2 2 2 2 2 2 3 3 3 4 4
2 3 3 2 2 2 2 2 1 1 1 1 1 1 1 2 2 2 1 1 0 1 1 1 1 1 1 1 2 2 2 2 2 2 2 2 2 3 3 3 3 3 4
2 2 4 3 2 2 2 2 1 1 1 1 1 1 1 1 0 0 0 1 1 1 1 1 1 1 1 1 1 1 2 2 2 2 2 2 2 3 3 3 3 3 3
2 2 2 2 2 2 1 1 1 1 0 1 1 1 1 0 0 0 1 1 2 2 2 2 2 2 2 2 2 2 2 2 2 2 2 2 2 2 2 2 3 3 3
3 2 2 2 2 2 2 2 1 1 0 1 1 1 0 1 1 1 2 2 2 2 2 2 2 2 2 2 2 2 2 2 2 2 2 2 2 2 3 3 4 4 4
3 3 2 2 2 2 2 1 1 1 1 1 1 1 1 2 2 2 2 2 2 2 2 2 2 4 4 3 2 3 3 3 3 3 3 3 3 3 3 3 4 5 5
3 3 2 2 1 1 1 1 1 1 1 1 1 2 2 2 2 2 2 2 2 2 3 3 3 4 5 5 4 4 4 4 4 3 3 3 3 3 3 4 4 4 4
3 3 2 2 1 1 1 0 1 1 1 1 2 2 2 2 2 2 2 2 2 3 3 3 4 5 6 6 6 6 5 5 5 5 3 3 3 3 4 4 5 5 5
Wind_Direction
186 191 191 194 198 202 216 229 230 234 236 238 235 228 225 223 214 206 210 208 217 228 225 221 229 226 224 220 212 212 214 211 237 257 233 216 203 196 181 188 194 190 186
185 184 190 192 194 204 221 231 230 233 236 234 231 229 231 229 216 211 216 214 217 227 233 229 237 232 228 227 219 220 219 212 219 240 242 223 216 194 180 178 174 172 168
179 182 188 195 199 210 220 225 225 227 236 236 233 231 236 231 222 222 219 219 221 224 224 227 236 230 239 235 230 229 226 222 216 218 234 219 209 182 170 170 155 148 153
180 185 195 203 206 213 216 215 217 219 227 239 241 238 235 232 225 222 218 219 224 226 225 228 234 230 235 237 235 230 224 220 214 213 220 207 200 186 174 182 179 175 173
180 190 203 204 201 204 209 212 209 210 223 227 237 252 248 238 236 217 216 219 223 236 245 244 245 243 243 239 240 230 215 216 212 216 217 206 202 191 198 188 194 177 182
181 196 199 191 189 194 197 189 182 192 211 201 222 230 257 271 262 213 203 212 212 223 248 266 270 259 261 254 250 237 219 214 215 215 220 216 215 205 193 187 185 183 206
174 180 184 181 188 194 184 172 186 192 185 204 223 213 256 302 304 242 207 207 213 230 244 266 292 314 14 353 342 339 270 243 223 220 223 223 212 200 188 193 196 197 205
173 178 176 171 179 175 166 179 198 195 191 213 227 220 330 323 328 211 197 176 230 276 261 227 220 282 29 53 43 22 359 340 293 243 234 230 213 190 191 193 189 172 120
180 186 185 180 177 174 185 195 197 187 195 191 162 125 228 323 351 7 125 105 68 4 348 52 138 141 16 87 119 117 347 347 31 50 90 172 172 169 162 157 160 168 186
194 196 181 175 180 184 189 187 188 186 192 180 163 182 229 297 308 165 147 144 170 256 302 25 103 98 45 82 162 202 252 286 355 50 57 75 131 153 162 175 178 181 180
161 159 155 158 169 171 163 162 158 156 162 181 196 255 273 283 274 186 162 171 202 214 230 250 210 113 89 74 215 235 247 229 174 128 100 93 107 135 156 167 178 182 186
132 140 156 158 157 152 148 148 148 159 173 209 243 281 307 310 311 290 235 205 203 210 228 232 215 173 166 187 215 223 184 149 145 133 128 131 143 163 168 163 163 165 176
117 124 140 135 133 137 145 159 167 177 192 219 241 265 297 335 350 347 312 254 209 219 236 212 200 171 149 150 125 125 131 139 159 179 194 215 209 181 144 125 118 116 97
113 107 109 124 125 118 122 150 171 187 210 234 254 266 282 303 325 342 347 353 143 158 349 93 99 105 96 76 46 73 114 167 185 210 229 245 155 146 152 153 157 150 132
111 106 97 107 130 118 102 89 152 158 202 216 246 249 260 273 277 253 221 243 221 192 146 104 78 79 65 29 20 38 76 111 141 191 174 173 166 156 162 148 153 151 155
101 104 114 121 118 124 127 86 56 66 65 81 88 171 223 266 310 208 196 177 158 146 133 155 195 209 228 257 275 306 322 319 250 199 190 198 209 205 191 167 163 173 177
129 135 116 113 118 133 155 164 153 53 59 56 53 62 60 40 46 74 110 105 115 129 118 137 242 239 248 256 268 266 273 282 268 226 220 223 222 218 206 197 189 190 196
108 108 112 136 151 165 184 187 176 160 95 14 24 30 27 31 37 53 90 95 78 74 41 307 293 295 285 270 267 267 265 260 245 236 234 232 223 219 219 212 204 205 206
101 97 111 119 121 128 131 128 125 118 99 42 19 16 26 42 52 63 102 91 94 46 307 294 293 290 286 274 270 269 264 259 257 246 238 236 231 224 226 223 211 202 207
92 101 108 105 101 99 101 104 101 97 81 45 16 1 30 58 51 46 56 35 336 281 282 283 292 296 291 279 273 268 264 262 259 255 246 235 229 228 229 224 213 204 209
97 98 99 98 98 102 107 111 111 108 86 38 350 355 105 97 89 319 321 300 281 275 269 271 278 281 280 280 273 266 265 268 263 261 250 241 230 226 225 217 212 211 210
112 107 103 103 98 97 103 106 106 106 72 17 352 7 111 76 13 334 300 289 274 262 256 253 264 264 256 254 255 258 258 265 268 268 261 246 234 228 221 211 206 203 203
107 102 97 91 92 94 87 76 78 71 22 353 355 1 359 303 300 294 293 293 291 285 278 267 266 269 264 253 242 235 242 254 258 254 247 242 235 230 225 220 215 208 208
111 107 100 93 87 84 81 73 65 43 349 313 310 307 300 295 296 296 296 295 293 294 294 284 272 271 272 270 263 254 256 264 260 247 237 237 233 231 228 226 225 222 220
108 105 102 101 100 97 88 65 40 15 351 333 323 318 314 312 310 309 311 308 303 303 300 290 284 283 280 273 270 268 272 271 271 272 249 234 240 237 238 234 229 228 225
105 107 105 100 97 96 95 62 12 4 353 345 340 335 334 331 326 322 320 318 310 305 302 297 292 289 293 286 277 275 277 275 271 268 256 242 241 244 241 240 238 233 231
Height
1537 1538 1539 1539 1540 1541 1541 1542 1542 1543 1543 1543 1543 1544 1544 1545 1546 1547 1548 1548 1549 1550 1551 1551 1552 1552 1553 1553 1553 1553 1553 1554 1553 1552 1553 1554 1554 1555 1556 1556 1557 1557 1558
1535 1536 1537 1537 1538 1539 1539 1540 1540 1540 1540 1540 1540 1541 1541 1542 1542 1543 1544 1545 1545 1546 1547 1547 1548 1548 1548 1549 1549 1549 1549 1549 1549 1548 1548 1549 1549 1550 1551 1552 1552 1553 1553
1533 1534 1535 1535 1536 1537 1537 1538 1538 1538 1538 1538 1538 1538 1538 1538 1539 1540 1540 1541 1542 1542 1543 1543 1543 1544 1544 1544 1544 1544 1544 1544 1544 1544 1543 1544 1545 1545 1546 1547 1548 1548 1549
1531 1532 1533 1533 1534 1535 1536 1536 1536 1536 1536 1536 1536 1536 1536 1536 1536 1537 1537 1537 1538 1538 1539 1539 1539 1539 1539 1539 1539 1539 1539 1539 1539 1539 1539 1539 1539 1540 1541 1542 1542 1543 1544
1529 1530 1531 1532 1533 1533 1534 1534 1534 1534 1534 1534 1534 1534 1534 1534 1534 1534 1534 1534 1534 1535 1535 1535 1535 1535 1535 1535 1535 1535 1535 1534 1534 1534 1534 1534 1534 1535 1536 1537 1538 1538 1539
1527 1528 1530 1531 1531 1531 1532 1532 1532 1532 1532 1532 1532 1532 1531 1531 1531 1531 1531 1531 1531 1531 1531 1531 1531 1531 1531 1531 1530 1530 1530 1530 1529 1529 1529 1529 1529 1530 1531 1532 1533 1534 1534
1525 1526 1528 1529 1529 1530 1530 1530 1530 1530 1530 1530 1530 1530 1530 1529 1529 1529 1529 1528 1528 1528 1528 1528 1527 1527 1526 1526 1526 1525 1525 1525 1525 1525 1524 1524 1525 1525 1526 1527 1528 1529 1530
1523 1524 1526 1527 1527 1527 1528 1528 1528 1528 1528 1528 1528 1528 1527 1527 1527 1526 1526 1526 1525 1525 1525 1525 1524 1523 1523 1523 1522 1522 1521 1521 1521 1520 1520 1520 1520 1521 1521 1522 1523 1524 1526
1520 1521 1523 1524 1524 1525 1525 1525 1526 1526 1526 1526 1526 1525 1524 1525 1525 1524 1523 1523 1522 1522 1522 1521 1521 1521 1520 1520 1519 1519 1518 1518 1517 1517 1517 1516 1516 1516 1517 1518 1518 1520 1520
1518 1519 1520 1521 1522 1521 1522 1522 1523 1523 1523 1523 1523 1523 1522 1522 1522 1521 1521 1520 1520 1519 1519 1519 1518 1518 1517 1517 1516 1516 1515 1514 1514 1513 1513 1513 1513 1513 1513 1514 1514 1516 1516
1515 1517 1517 1518 1519 1519 1520 1520 1520 1520 1521 1520 1520 1519 1519 1519 1518 1518 1518 1517 1517 1516 1516 1515 1515 1515 1514 1514 1513 1513 1512 1511 1511 1510 1510 1510 1510 1510 1510 1511 1512 1513 1514
1512 1513 1514 1514 1515 1516 1517 1517 1517 1517 1517 1517 1517 1516 1516 1516 1515 1515 1515 1514 1513 1513 1512 1512 1511 1511 1511 1510 1510 1509 1509 1509 1508 1507 1507 1507 1507 1507 1507 1508 1509 1510 1510
1508 1509 1509 1510 1511 1511 1512 1514 1515 1515 1514 1514 1514 1513 1512 1512 1512 1512 1511 1511 1510 1510 1509 1509 1508 1508 1507 1507 1507 1506 1506 1506 1505 1505 1504 1504 1504 1504 1505 1505 1506 1507 1507
1506 1506 1507 1507 1508 1509 1509 1510 1511 1511 1511 1511 1510 1510 1509 1509 1508 1508 1507 1507 1507 1506 1506 1505 1505 1505 1504 1504 1504 1503 1503 1503 1503 1502 1502 1502 1502 1502 1503 1503 1503 1504 1505
1503 1503 1504 1505 1506 1507 1507 1507 1507 1508 1508 1507 1507 1508 1507 1506 1506 1505 1504 1504 1503 1503 1502 1502 1502 1502 1501 1501 1501 1500 1500 1500 1500 1500 1500 1500 1500 1500 1501 1501 1501 1502 1502
1502 1502 1502 1504 1504 1504 1505 1504 1504 1505 1504 1504 1504 1504 1503 1503 1502 1502 1501 1501 1500 1500 1500 1499 1499 1499 1499 1498 1498 1498 1497 1497 1497 1497 1497 1498 1498 1498 1498 1499 1499 1500 1500
1500 1501 1501 1501 1502 1502 1502 1502 1501 1502 1502 1501 1501 1501 1500 1500 1499 1499 1498 1498 1497 1497 1497 1497 1496 1496 1496 1496 1495 1495 1495 1495 1495 1495 1495 1495 1495 1496 1496 1496 1497 1497 1498
1499 1499 1498 1498 1499 1500 1500 1500 1499 1498 1498 1498 1498 1498 1498 1497 1497 1496 1496 1495 1495 1494 1494 1494 1494 1494 1493 1493 1493 1493 1493 1493 1493 1493 1493 1493 1493 1493 1493 1494 1495 1495 1496
1496 1496 1496 1496 1496 1497 1497 1497 1497 1496 1496 1496 1496 1496 1495 1495 1494 1494 1493 1493 1493 1492 1492 1492 1492 1491 1491 1491 1491 1491 1490 1490 1490 1490 1490 1491 1491 1491 1491 1492 1493 1493 1494
1495 1495 1494 1494 1494 1495 1495 1495 1495 1495 1494 1494 1494 1493 1493 1492 1492 1492 1491 1491 1491 1491 1490 1490 1490 1490 1489 1489 1488 1488 1488 1488 1488 1488 1488 1488 1488 1489 1489 1490 1490 1491 1491
1493 1493 1493 1493 1493 1493 1494 1494 1494 1493 1493 1493 1493 1492 1492 1491 1491 1490 1490 1490 1490 1489 1489 1488 1488 1487 1487 1487 1486 1486 1486 1485 1485 1485 1485 1485 1486 1486 1486 1487 1488 1488 1489
1492 1492 1492 1492 1492 1492 1493 1493 1493 1492 1492 1492 1492 1491 1491 1490 1489 1489 1489 1488 1488 1487 1487 1486 1486 1485 1485 1484 1484 1483 1483 1483 1483 1483 1483 1483 1483 1483 1484 1484 1485 1485 1486
1491 1491 1491 1491 1491 1492 1492 1492 1492 1491 1491 1491 1491 1491 1490 1489 1489 1488 1488 1487 1486 1486 1485 1485 1484 1484 1483 1482 1482 1481 1481 1481 1481 1480 1480 1480 1480 1481 1481 1482 1483 1483 1484
1491 1491 1491 1491 1491 1491 1491 1491 1491 1491 1491 1491 1490 1490 1490 1489 1488 1488 1487 1486 1485 1485 1484 1483 1483 1482 1481 1481 1480 1480 1479 1479 1479 1478 1478 1478 1478 1478 1479 1479 1480 1481 1481
1490 1491 1491 1491 1491 1491 1491 1491 1491 1491 1491 1490 1490 1490 1489 1489 1488 1487 1486 1486 1485 1484 1483 1482 1481 1480 1479 1479 1478 1478 1477 1477 1476 1476 1476 1476 1476 1476 1476 1476 1477 1477 1478
1490 1490 1491 1491 1491 1491 1491 1491 1491 1491 1490 1490 1490 1489 1489 1488 1487 1486 1486 1485 1483 1482 1481 1480 1479 1478 1477 1477 1476 1476 1475 1475 1474 1473 1473 1473 1473 1473 1473 1473 1473 1474 1474